Terminal Aerodrome Forecast
Issued by NWS

Home | Current Version | Previous Version | Text Only | Print | Product List | Glossary On
Versions: 1 2 3 4 5 6 7 8 9 10 11 12
000
FTUS45 KABQ 260500
TAFAEG
TAF
KAEG 260536Z 2606/2706 25005KT P6SM SCT120
     FM261700 21008KT P6SM SCT120
     FM261900 24014G24KT P6SM VCSH BKN100
     FM270100 25008KT P6SM SCT100=

USA.gov is the U.S. government's official web portal to all federal, state and local government web resources and services.